Simultaneous Nadir Overpasses (SNOs) Predictions

Prediction of SNOs between NOAA-19 and TERRA Satellite Orbit:

Table of predicted SNOs for the next 14.0 days since TLE Epoch: 3/4/2017
Index Date (NOAA-19) Time (NOAA-19) Lat,Lon (NOAA-19) SZA (NOAA-19 ) Date (TERRA) Time (TERRA) Lat,Lon (TERRA) SZA (TERRA ) Distance(km) Time Diff (sec)
1 03/04/2017 18:39:44 75.06, -90.02 81.23 03/04/2017 18:40:18 75.03, -90.03 81.21 2.98 34
2 03/04/2017 19:30:38 -74.98, 77.49 98.86 03/04/2017 19:29:47 -74.96, 77.41 98.89 3.37 51
3 03/07/2017 00:13:32 -75.07, 6.54 99.61 03/07/2017 00:14:03 -75.05, 6.59 99.63 2.87 31
4 03/07/2017 01:04:36 74.97, 174.09 80.28 03/07/2017 01:03:30 74.98, 174.04 80.28 1.94 66
5 03/09/2017 05:47:30 75.06, 103.17 79.51 03/09/2017 05:47:46 75.06, 103.19 79.52 0.80 16
6 03/09/2017 06:38:24 -75.00, -89.40 100.56 03/09/2017 06:37:15 -74.99, -89.36 100.58 1.65 69
7 03/11/2017 11:21:17 -75.06,-160.23 101.36 03/11/2017 11:21:31 -75.07,-160.23 101.35 0.85 14
8 03/11/2017 12:12:13 74.56, 8.48 78.19 03/11/2017 12:11:05 74.63, 6.29 78.17 65.00 68
9 03/13/2017 16:55:16 75.08, -63.73 77.79 03/13/2017 16:55:14 75.05, -63.70 77.76 3.33 2
10 03/13/2017 17:45:58 -74.48, 105.31 102.75 03/13/2017 17:44:51 -74.58, 102.73 102.76 77.33 67
11 03/15/2017 21:38:16 75.46,-135.60 77.28 03/15/2017 21:39:25 75.35,-133.95 77.23 47.77 69
12 03/15/2017 22:29:02 -75.06, 32.96 103.11 03/15/2017 22:28:58 -75.09, 32.97 103.07 3.69 4
13 03/18/2017 03:12:00 -75.35, -38.63
